Tracking 32938 objects as of 13-Jan-2026
HD Live streaming from Space Station
objects crossing your sky now

STARLINK-2285

Track STARLINK-2285 now!
10-day predictions
STARLINK-2285 is classified as:


NORAD ID: 48019
Int'l Code: 2021-024AU
Perigee: 553.7 km
Apogee: 555.1 km
Inclination: 53.1 °
Period: 95.6 minutes
Semi major axis: 6925 km
RCS: Unknown
Launch date: March 24, 2021
Source: United States (US)
Launch site: AIR FORCE EASTERN TEST RANGE (AFETR)
Your satellite tracking list
Your tracking list is empty




NASA's NSSDC Master Catalog

Two Line Element Set (TLE):
1 48019U 21024AU  26012.78696081  .00006139  00000-0  43078-3 0  9991
2 48019  53.0563 202.5760 0000974  65.5115 294.5976 15.06387722266424
Source of the keplerian elements: AFSPC